This is the latest recevied weather packets stored in our database for station/object W0AVQ. If no packets are shown the sender has not sent any weather packets the latest 10 day(s).
| Time | Temp. | Humidity | Pressure | Rain* | Wind** | Luminosity | Snow |
|---|---|---|---|---|---|---|---|
| 1777679024 | 17.78° C | 41% | 1017.7 hPa | 0 mm | - | 60 W/m² | - |
| 1777678722 | 17.22° C | 43% | 1017.7 hPa | 0 mm | - | 68 W/m² | - |
| 1777678419 | 17.78° C | 41% | 1017.6 hPa | 0 mm | - | 88 W/m² | - |
| 1777678115 | 17.78° C | 41% | 1017.7 hPa | 0 mm | - | 102 W/m² | - |
| 1777677812 | 17.78° C | 41% | 1017.7 hPa | 0 mm | - | 125 W/m² | - |
| 1777677510 | 17.22° C | 41% | 1017.7 hPa | 0 mm | - | 142 W/m² | - |
| 1777677207 | 17.22° C | 41% | 1017.5 hPa | 0 mm | - | 86 W/m² | - |
| 1777676906 | 17.22° C | 43% | 1017.7 hPa | 0 mm | - | 129 W/m² | - |
| 1777676605 | 17.22° C | 42% | 1017.6 hPa | 0 mm | - | 147 W/m² | - |
| 1777676302 | 17.78° C | 43% | 1017.8 hPa | 0 mm | - | 144 W/m² | - |
| 1777675999 | 17.78° C | 40% | 1017.7 hPa | 0 mm | - | 143 W/m² | - |
| 1777675695 | 17.78° C | 41% | 1017.5 hPa | 0 mm | - | 207 W/m² | - |
| 1777675393 | 18.33° C | 39% | 1016.9 hPa | 0 mm | - | 163 W/m² | - |
| 1777675089 | 17.78° C | 41% | 1016.6 hPa | 0 mm | - | 221 W/m² | - |
| 1777674785 | 17.78° C | 39% | 1016.5 hPa | 0 mm | - | 258 W/m² | - |
| 1777674481 | 17.78° C | 40% | 1016.8 hPa | 0 mm | - | 186 W/m² | - |
| 1777674179 | 18.33° C | 40% | 1016.7 hPa | 0 mm | - | 75 W/m² | - |
| 1777673876 | 18.33° C | 42% | 1016.6 hPa | 0 mm | - | 300 W/m² | - |
| 1777673572 | 17.78° C | 40% | 1016.8 hPa | 0 mm | - | 243 W/m² | - |
| 1777673270 | 17.78° C | 41% | 1017.1 hPa | 0 mm | - | 183 W/m² | - |
| 1777672967 | 17.78° C | 39% | 1017.1 hPa | 0 mm | - | 311 W/m² | - |
| 1777672664 | 17.78° C | 40% | 1017.4 hPa | 0 mm | - | 125 W/m² | - |
| 1777672359 | 17.78° C | 40% | 1017.4 hPa | 0 mm | - | 79 W/m² | - |
| 1777672054 | 18.33° C | 40% | 1017.4 hPa | 0 mm | - | 73 W/m² | - |
| 1777671751 | 17.78° C | 39% | 1017.2 hPa | 0 mm | - | 84 W/m² | - |
* Rain latest hour (hover to see other rain measurements)
** Current wind speed in m/s (hover to see current wind gust speed)